Regional Weather Roundup
Issued by NWS

Home | Current Version | Previous Version | Text Only | Print | Product List | Glossary Off
Versions: 1 2 3 4 5 6 7 8 9 10 11 12 13 14 15 16 17 18 19 20 21 22 23 24 25 26 27 28 29 30 31 32 33 34 35 36 37 38 39 40 41 42 43 44 45 46 47 48 49 50

000
ASUS45 KCYS 251210
RWRWY

WYOMING REGIONAL WEATHER ROUNDUP
NATIONAL WEATHER SERVICE CHEYENNE WY
600 AM MDT SUN JUN 25 2017

NOTE:  "FAIR" INDICATES FEW OR NO CLOUDS BELOW 12,000 FEET
WITH NO SIGNIFICANT WEATHER AND/OR OBSTRUCTIONS TO VISIBILITY.

WYZ001-251300-
YELLOWSTONE NATIONAL PARK

CITY           SKY/WX    TMP DP  RH WIND       PRES   REMARKS
LK YELLOWSTONE   N/A     32  30  92 CALM      30.49R
6HR MIN TEMP:  32; 6HR MAX TEMP:  42;

W YELLOWSTONE  NOT AVBL

$$
WYZ002>013-054>058-071-098>099-251300-
NORTHERN WYOMING

CITY           SKY/WX    TMP DP  RH WIND       PRES   REMARKS
JACKSON        FAIR      43  37  81 CALM      30.40S
CODY           FAIR      47  35  63 CALM      30.39R
GREYBULL       FAIR      53  34  48 CALM      30.32R
6HR MIN TEMP:  51; 6HR MAX TEMP:  68;

WORLAND        FAIR      47  38  71 S6        30.32R
6HR MIN TEMP:  47; 6HR MAX TEMP:  63;

SHERIDAN       MOCLDY    46  41  82 SE3       30.34R
6HR MIN TEMP:  41; 6HR MAX TEMP:  51;

BUFFALO        FAIR      49  35  58 NW3       30.37R
6HR MIN TEMP:  45; 6HR MAX TEMP:  60;

GILLETTE       MOCLDY    45  37  73 CALM      30.35R
6HR MIN TEMP:  38; 6HR MAX TEMP:  49;

NEWCASTLE      FAIR      43  30  61 N7        30.37S

$$
WYZ014>020-022>026-101>103-251300-
CENTRAL WYOMING

CITY           SKY/WX    TMP DP  RH WIND       PRES   REMARKS
BIG PINEY      FAIR      38  33  82 NW8       30.43R WCI  32
6HR MIN TEMP:  36; 6HR MAX TEMP:  53;

PINEDALE       FAIR      37  34  87 W5        30.43S WCI  34
DUBOIS         FAIR      37  32  81 NW3       30.47R
LANDER         FAIR      51  35  54 W9        30.38S
6HR MIN TEMP:  49; 6HR MAX TEMP:  59;

RIVERTON       FAIR      51  33  50 NE9       30.38S
6HR MIN TEMP:  50; 6HR MAX TEMP:  59;

CASPER         FAIR      50  31  48 E9        30.38S
6HR MIN TEMP:  49; 6HR MAX TEMP:  58;

DOUGLAS        MOCLDY    52  34  50 S7        30.40S
6HR MIN TEMP:  51; 6HR MAX TEMP:  57;


$$
WYZ021-027>030-104>119-251300-
SOUTHERN WYOMING

CITY           SKY/WX    TMP DP  RH WIND       PRES   REMARKS
EVANSTON       FAIR      49  34  56 E7        30.40R
6HR MIN TEMP:  48; 6HR MAX TEMP:  61;

KEMMERER         N/A     46  32  57 N10       30.42S
FORT BRIDGER   FAIR      47  32  54 NW5       30.43R
ROCK SPRINGS   FAIR      49  31  49 E13       30.39R
6HR MIN TEMP:  48; 6HR MAX TEMP:  58;

DIXON          FAIR      41  30  66 NE3       30.39R
RAWLINS        FAIR      49  34  56 NE10      30.40R
6HR MIN TEMP:  48; 6HR MAX TEMP:  55;

SARATOGA       FAIR      41  34  75 S7        30.41R
LARAMIE        FAIR      42  40  92 SW6       30.41S
6HR MIN TEMP:  41; 6HR MAX TEMP:  52;

CHEYENNE       FAIR      48  38  68 N6        30.40S
6HR MIN TEMP:  48; 6HR MAX TEMP:  54;

TORRINGTON     MOCLDY    54  33  45 E7        30.36S
6HR MIN TEMP:  52; 6HR MAX TEMP:  60; 6HR PCP: TRACE;

PINE BLUFFS    FAIR      48  37  66 NE8       30.39S

$$



USA.gov is the U.S. government's official web portal to all federal, state and local government web resources and services.